User: anonymous   Login
Location: Newark
(44.6028°N, 124.0883°W)
Time: 05:10:23
(UTC+00:00)
Language:

A-11 Canister half - Orbit

View from above orbital plane
View from above orbital plane
View from above satellite
View from above satellite

Ground track
Ground track

The orbit data is extracted from the following two-line orbital elements,

1    51U 60009C   19291.34317334 -.00000178  00000-0 -89639-3 0  9997
2    51  47.2159  19.5364 0108058 161.1086 199.3757 12.18275930634449
Epoch (UTC): 18 October 2019 08:14:10
Eccentricity: 0.0108058
inclination: 47.2159°
perigee height: 1514 km
apogee height: 1686 km
right ascension of ascending node: 19.5364°
argument of perigee: 161.1086°
revolutions per day: 12.18275930
mean anomaly at epoch: 199.3757°
orbit number at epoch: 63444

The dashed part of the orbit path shows where the satellite is in the earth's shadow,  

DLR